Wind_Speed
31 29 25 23 22 20 17 16 14 12 11 9 7 5 4 7 11 12 13 15 16 16 14 13 13 14 15 16 16 16 17 18 19 19 20 20 21 21 21 20 19 19 20 20 21 23 24 25 27 27 26 26 26 26 27 28 28 28 28 28 27 26 26
33 32 28 25 25 24 20 18 16 14 13 11 9 8 5 5 8 10 12 13 14 15 15 13 12 12 14 15 15 16 16 17 17 18 18 19 19 19 19 18 17 18 20 20 21 23 24 24 23 23 23 23 23 23 24 25 25 25 25 25 24 24 23
36 35 33 30 29 27 24 20 18 16 15 13 12 10 8 5 6 9 11 12 13 14 15 14 13 12 13 14 15 15 16 16 17 17 17 17 18 17 16 16 16 18 19 20 20 20 20 19 18 19 20 20 20 21 22 22 23 23 22 21 20 20 20
39 39 38 36 33 29 26 23 21 19 17 15 14 13 12 9 6 8 10 11 11 12 13 14 14 13 12 13 14 14 15 16 16 16 16 16 16 16 16 16 17 18 19 19 19 18 17 16 17 19 20 20 20 20 20 19 19 18 17 17 16 16 16
41 41 41 39 35 31 29 26 23 21 18 17 16 14 14 12 9 8 8 10 10 10 11 13 14 14 13 13 13 13 14 15 15 15 16 16 16 15 15 16 17 17 17 17 17 17 17 16 18 20 20 20 20 19 18 17 15 14 13 13 12 12 12
44 43 42 40 37 34 32 29 26 23 21 19 18 16 15 15 13 10 9 9 10 10 10 11 13 13 14 13 13 13 13 14 15 15 15 15 15 16 16 16 16 16 16 16 16 16 15 16 17 18 18 18 17 16 15 14 13 12 11 10 9 9 8
47 45 43 41 38 35 33 31 28 25 23 20 20 19 17 17 16 14 12 10 10 10 10 10 11 12 13 13 13 13 13 13 14 14 14 15 15 15 16 16 16 15 15 15 15 14 14 14 15 16 15 16 15 14 13 12 11 10 8 7 6 5 4
50 49 46 43 40 37 35 32 30 28 25 23 22 21 19 18 18 17 15 13 11 11 10 10 10 10 12 13 12 12 12 13 13 13 14 14 15 15 15 15 15 15 15 14 14 14 13 13 14 14 14 14 13 12 11 11 10 9 7 6 5 4 4
52 52 50 45 42 40 38 35 32 30 28 26 24 22 21 20 20 19 18 17 15 13 11 11 10 9 9 11 11 12 12 12 13 13 13 14 15 15 15 15 15 14 14 14 13 13 13 12 12 12 12 12 11 10 10 10 9 9 8 7 7 7 6
53 54 53 48 45 44 41 38 35 33 31 29 27 25 23 23 22 21 21 20 18 16 14 13 12 11 10 10 9 10 10 11 11 12 12 13 14 14 15 15 15 15 14 13 13 12 12 11 11 11 10 10 10 10 10 9 9 9 8 8 9 8 8
55 55 55 52 49 47 43 40 38 36 35 33 31 29 26 25 24 23 23 22 20 19 17 16 14 13 12 12 11 11 10 10 10 11 11 12 12 13 13 14 14 14 14 13 13 12 11 11 10 10 9 9 9 9 9 10 10 9 9 9 9 9 9
56 57 57 53 52 51 47 44 41 39 38 36 33 32 30 28 26 26 25 24 22 21 20 19 17 16 15 15 14 14 13 13 12 12 12 11 11 11 11 11 12 12 12 12 12 12 12 12 11 11 10 9 10 10 11 11 11 11 11 11 12 11 11
55 55 58 56 53 53 51 49 46 42 40 39 37 35 33 30 28 28 27 26 24 23 22 21 20 19 18 18 17 16 16 16 16 16 15 14 13 11 11 10 10 11 11 11 12 12 12 11 11 10 9 8 8 9 10 12 13 14 15 14 14 14 14
57 53 56 57 55 55 53 51 48 46 44 42 40 39 36 33 31 30 29 27 26 25 24 23 22 21 21 20 20 20 19 19 19 20 19 18 16 15 13 12 11 11 11 11 11 11 10 10 10 10 9 7 7 8 10 12 15 16 15 14 14 14 14
62 55 55 57 57 56 54 52 50 49 47 45 42 40 39 37 35 32 30 29 28 28 27 26 25 24 23 22 22 21 22 22 22 22 22 21 19 18 17 15 14 13 12 11 10 10 10 10 10 11 12 13 15 16 15 15 16 15 13 12 12 13 12
64 60 56 55 55 55 54 54 53 51 50 47 44 41 40 40 39 36 33 32 31 30 29 29 27 26 25 24 23 23 23 24 24 24 24 23 22 21 20 19 17 15 14 13 12 12 12 13 13 14 14 16 18 20 19 17 17 16 14 14 13 13 13
66 64 59 55 54 53 54 55 56 54 52 50 46 42 42 43 42 40 37 36 34 32 31 30 29 28 28 27 25 25 25 26 27 27 27 26 25 24 24 22 21 19 17 16 16 16 17 17 16 17 18 18 18 19 19 19 18 18 17 17 17 17 17
68 67 62 56 55 55 53 53 56 58 56 53 50 46 44 44 44 43 40 39 39 37 34 33 31 29 29 29 28 28 28 28 29 30 30 29 28 27 27 26 24 23 22 21 20 21 22 20 19 19 21 21 20 21 20 20 20 20 20 20 20 20 20
70 69 65 58 55 58 56 51 51 57 59 57 54 52 50 47 46 45 43 42 41 38 35 34 33 30 29 30 31 32 30 29 32 34 34 32 32 31 30 29 29 27 26 25 24 25 26 24 22 23 24 23 23 22 22 22 22 22 22 23 23 22 22
71 70 68 62 57 58 59 54 50 52 59 62 58 55 55 51 47 46 45 43 41 38 35 35 34 33 31 31 34 37 37 36 38 38 36 35 35 34 33 32 33 32 31 30 29 29 29 28 27 28 28 27 26 25 24 24 24 24 24 24 25 26 26
73 72 72 68 60 57 57 57 54 51 54 60 60 57 57 56 51 48 46 44 42 39 39 39 37 36 35 34 37 40 41 41 42 40 37 37 37 36 35 35 35 35 35 35 34 33 33 33 32 33 32 31 30 28 28 28 27 27 27 27 29 31 32
75 73 74 72 66 60 57 57 57 53 52 56 59 59 58 57 55 51 46 43 41 41 42 43 40 38 37 37 40 42 41 42 44 42 40 39 37 37 37 38 38 38 38 38 38 38 38 37 37 37 37 36 33 32 32 32 31 31 31 31 33 35 36
75 74 74 73 70 66 60 57 57 56 53 53 54 57 58 57 57 55 50 46 44 43 43 45 43 40 37 39 44 46 44 44 45 46 44 42 39 39 39 39 40 40 40 41 41 41 41 41 41 40 40 39 38 36 35 35 34 33 34 35 36 37 39
75 74 74 73 71 67 62 58 57 56 53 52 50 50 53 55 56 55 53 52 50 47 46 47 45 41 40 44 49 50 48 47 48 49 48 46 43 41 39 40 41 42 43 44 44 43 41 41 41 40 39 40 41 40 39 38 38 37 37 38 39 39 40
76 74 73 73 72 69 62 57 57 57 54 54 54 52 51 54 57 56 54 54 53 51 49 47 46 45 45 48 51 50 49 50 52 53 51 48 45 42 40 39 40 42 44 45 45 45 43 42 40 38 39 40 41 41 42 42 42 42 42 42 42 41 40
78 75 74 73 72 71 67 58 56 60 61 59 58 58 58 58 59 59 58 57 56 55 53 50 50 51 49 48 49 49 47 48 53 56 55 51 47 45 43 42 43 44 44 43 44 44 44 43 41 39 40 42 41 41 42 42 43 44 45 45 45 43 42
80 77 77 75 69 69 70 63 57 61 66 63 59 59 61 60 59 59 61 62 61 59 57 55 54 55 52 50 52 52 48 48 52 55 56 54 50 48 46 47 48 49 48 47 46 45 43 42 40 40 42 43 42 43 45 45 45 47 48 48 47 45 45
83 81 80 78 70 66 67 64 60 63 67 67 64 62 59 56 54 55 57 61 64 64 61 59 58 57 54 53 55 53 50 50 53 53 53 54 53 51 50 51 53 53 51 50 50 50 48 44 42 41 43 44 46 48 49 49 48 49 51 51 50 49 49
84 83 82 80 74 69 66 64 63 66 68 68 68 68 63 57 53 52 52 57 63 66 66 63 62 61 59 57 57 55 52 52 53 53 52 53 53 53 54 55 55 54 53 53 53 53 52 49 47 47 48 50 52 52 51 49 48 49 51 53 53 53 54
84 82 82 81 78 75 71 67 66 69 70 69 70 72 71 66 62 59 55 55 61 67 69 68 66 65 65 64 63 62 61 59 58 58 58 57 57 56 58 58 56 54 52 51 51 51 49 48 49 50 51 53 55 55 54 52 49 50 52 54 54 54 56
85 82 81 82 81 79 76 73 71 72 73 71 71 74 77 76 74 72 65 59 60 66 70 72 71 69 68 68 68 68 68 68 67 67 68 67 64 62 62 64 63 60 56 53 52 53 52 51 52 53 56 58 59 59 60 61 59 59 60 60 59 58 58
84 84 82 82 82 81 79 77 75 75 76 73 71 74 79 81 81 81 76 68 64 66 68 71 73 73 71 71 71 71 72 73 73 73 73 72 69 67 66 69 71 70 68 65 64 64 64 64 64 65 66 68 68 68 68 70 71 71 71 71 69 68 67
81 85 85 84 82 80 80 81 79 78 78 77 73 75 80 83 83 84 82 77 72 71 70 70 72 74 75 75 74 73 74 76 76 75 74 72 70 68 66 68 73 75 74 72 72 72 73 73 73 73 72 72 73 74 74 75 76 77 77 77 77 75 74
78 83 88 86 82 79 80 83 84 82 81 80 77 76 79 83 85 86 86 84 81 78 76 75 74 75 75 75 75 75 76 77 78 77 76 74 72 69 66 66 69 71 72 73 73 74 75 75 75 75 75 75 75 76 77 77 78 79 79 79 80 80 80
77 81 87 88 83 78 78 83 87 88 86 83 81 79 80 82 85 87 89 90 88 85 82 80 79 79 78 77 76 75 76 77 77 77 76 74 72 71 70 69 69 69 70 71 72 74 75 75 74 74 74 74 75 76 78 78 79 80 80 81 81 82 83
77 78 83 88 86 80 76 80 86 89 90 88 85 83 82 82 83 86 89 92 93 91 87 84 82 82 82 81 80 78 77 77 77 77 77 76 73 72 72 72 71 70 69 70 71 73 74 75 75 75 76 77 77 77 78 79 79 79 80 81 82 82 83
77 76 79 85 88 85 79 78 82 86 89 90 88 87 86 85 84 84 86 90 93 93 91 88 86 85 85 86 86 85 83 81 80 79 77 76 75 74 73 73 74 73 72 73 74 77 79 80 82 83 83 83 82 81 80 79 79 79 79 80 80 81 82
76 74 75 80 87 89 85 81 80 82 85 87 87 87 88 89 88 85 84 87 92 94 93 93 90 88 88 88 89 89 88 87 85 83 79 77 76 76 76 77 77 78 79 80 82 83 85 85 86 86 86 85 84 84 82 81 81 81 80 80 79 79 80
Wind_Direction
215 211 206 215 221 218 221 219 211 211 212 211 210 191 129 94 85 78 74 70 70 73 78 87 96 104 108 111 113 116 120 123 123 123 122 122 122 122 122 119 117 118 120 120 120 119 118 119 120 120 120 120 119 116 115 114 113 112 111 109 106 104 102
217 218 209 212 221 218 217 220 215 211 211 211 210 202 185 126 102 92 84 78 75 76 78 84 94 103 109 112 114 118 121 125 127 127 126 125 125 125 124 122 121 122 124 126 127 126 125 124 124 126 125 123 121 119 118 117 114 112 111 109 106 104 103
217 220 214 210 216 217 216 219 218 215 212 210 209 204 200 179 131 110 99 90 83 82 83 84 91 101 109 114 117 119 122 125 128 131 131 131 131 131 129 128 128 129 130 131 133 134 134 133 134 136 135 131 128 125 123 120 116 114 112 109 107 106 104
217 219 218 215 215 214 214 217 218 218 215 210 210 207 202 197 171 137 118 107 97 91 90 89 91 97 107 116 120 122 125 127 130 133 136 137 137 136 136 135 136 137 137 137 140 142 143 142 142 144 144 140 137 134 130 125 122 120 116 112 111 109 106
215 217 219 219 218 213 212 215 216 218 217 213 212 210 204 200 192 171 145 128 115 105 100 99 97 97 103 112 121 126 129 131 134 136 139 142 142 142 142 142 144 145 145 145 146 147 147 146 147 148 148 146 144 142 139 136 133 129 124 120 117 113 109
213 215 218 220 219 215 213 214 215 216 218 217 214 213 209 203 198 192 175 154 138 126 117 111 108 105 103 106 114 124 132 136 139 141 143 145 146 147 147 147 149 151 153 154 154 155 154 154 155 157 156 156 154 152 151 150 148 144 139 133 129 121 115
213 213 216 218 217 217 216 216 216 217 218 219 218 215 213 207 202 200 194 179 164 152 141 130 123 117 113 112 113 118 127 136 142 147 150 151 152 153 153 153 154 155 156 158 159 160 161 162 165 168 168 168 167 166 166 166 165 164 161 154 147 138 133
214 213 214 216 218 219 219 217 217 218 218 219 221 218 215 212 207 205 203 197 188 177 164 154 146 137 129 125 123 123 126 131 140 149 155 159 160 161 162 161 162 162 162 162 163 163 163 165 167 171 174 177 181 182 183 185 187 191 193 188 188 197 202
215 216 213 215 219 220 220 219 219 219 219 219 221 220 217 217 213 209 208 206 202 197 186 178 174 167 156 146 141 138 138 138 140 147 154 161 166 169 171 171 171 172 171 171 172 170 169 171 174 176 180 184 189 193 196 202 207 214 217 218 224 229 231
213 218 215 212 216 220 221 221 220 219 220 220 221 220 218 218 217 214 212 210 209 209 205 197 192 190 188 183 173 165 161 158 154 153 155 159 164 169 173 175 178 179 180 181 181 180 179 183 185 187 190 194 199 204 209 215 221 225 228 232 235 238 240
210 218 219 214 214 219 220 220 220 219 220 221 220 220 218 217 218 217 216 214 213 215 215 212 207 204 204 205 205 202 197 190 183 177 172 170 168 168 169 171 175 178 182 186 187 189 191 195 197 198 200 204 210 216 222 227 231 233 234 238 241 243 246
209 215 222 219 215 217 218 217 219 221 222 223 222 221 220 217 217 218 219 218 216 217 220 220 218 217 217 216 217 218 220 220 216 209 202 196 189 182 176 172 170 172 177 180 184 188 192 197 202 205 208 215 221 227 234 239 242 243 240 240 243 245 247
209 213 221 223 217 215 217 217 218 222 224 224 224 224 222 220 218 219 220 220 219 219 222 224 224 224 225 226 226 226 227 230 230 229 226 222 216 208 200 192 186 181 179 179 182 186 187 191 196 200 206 217 230 239 245 248 247 245 243 241 243 246 249
210 210 217 224 221 214 216 219 220 221 224 225 225 225 224 222 220 219 220 221 221 221 222 225 227 228 230 231 232 233 233 235 236 236 236 234 231 227 223 218 211 205 201 197 196 194 192 192 194 195 195 207 235 248 249 249 248 246 245 245 246 249 251
210 208 211 222 225 220 217 219 220 222 223 224 225 224 224 223 221 220 219 220 222 223 223 225 228 230 233 235 236 236 238 239 240 240 240 239 238 237 236 234 230 227 224 222 221 218 215 212 210 208 202 204 217 225 229 240 250 253 253 252 251 254 256
210 208 207 213 222 225 221 219 219 221 222 222 222 222 223 223 222 220 219 219 221 223 224 226 229 232 236 239 240 241 242 243 244 245 244 243 242 242 242 241 240 239 238 238 239 236 234 229 225 224 220 215 218 222 226 237 250 255 257 258 259 261 263
208 208 205 203 210 219 221 219 219 220 220 221 221 221 222 223 222 220 219 217 218 220 223 225 228 232 237 241 243 244 245 246 246 247 247 246 244 243 243 244 244 244 246 247 247 248 247 241 235 235 235 229 227 229 232 240 248 253 256 257 257 258 258
208 207 205 201 204 212 217 218 218 218 219 220 220 221 222 223 223 222 220 219 218 217 218 220 223 228 235 241 245 245 247 250 251 250 248 246 246 244 243 244 245 246 248 250 252 253 254 251 246 246 247 244 241 240 241 246 251 254 257 258 257 256 257
210 206 204 201 204 210 215 217 217 216 217 219 220 221 223 224 224 223 221 222 222 220 219 221 220 221 227 236 243 244 242 241 242 244 244 243 243 243 242 243 246 248 250 252 253 255 257 258 255 253 253 252 250 249 249 251 253 256 259 261 262 262 263
211 207 204 203 204 208 213 216 217 216 215 217 219 221 222 224 225 225 224 224 225 224 225 226 224 220 221 228 238 242 238 231 231 235 238 239 241 242 243 244 245 247 249 250 251 253 256 259 258 255 254 254 254 255 255 257 258 259 261 265 267 269 272
212 208 206 207 207 206 208 213 217 217 215 216 217 220 222 223 225 226 225 226 227 226 225 227 227 224 222 223 230 238 241 239 237 237 238 237 239 242 243 245 245 246 248 250 252 254 256 256 255 255 254 254 255 255 256 258 261 263 264 266 268 271 273
212 211 210 211 211 208 206 210 216 217 216 215 216 218 221 223 225 225 223 224 228 228 228 230 230 228 228 230 232 237 242 244 242 241 240 239 239 241 243 245 247 248 250 253 255 257 257 256 254 254 255 255 255 255 255 257 260 263 265 266 267 269 272
211 212 213 212 213 211 208 209 214 216 217 218 218 219 221 222 225 226 225 226 230 232 232 233 233 232 232 236 240 241 243 245 244 243 243 243 244 244 244 245 247 248 250 253 256 257 258 258 258 257 257 257 256 256 257 258 260 262 264 266 267 268 269
210 213 214 213 212 212 212 212 213 213 215 218 219 220 223 225 228 230 231 231 233 234 234 234 235 234 230 234 241 245 245 245 243 242 242 243 246 246 246 247 249 250 250 251 252 254 256 260 263 262 261 259 257 257 259 260 261 262 264 265 267 268 268
209 212 215 215 213 213 214 215 215 213 212 214 217 218 221 226 230 233 234 235 235 234 232 232 236 238 237 238 241 245 245 242 240 241 241 241 243 246 248 249 250 250 251 251 252 252 253 256 260 262 262 261 259 258 259 261 262 264 266 267 268 269 269
209 211 215 216 215 214 213 215 216 213 212 213 215 218 221 224 228 232 234 235 235 234 232 231 234 239 242 243 241 242 244 242 239 240 240 239 242 247 249 250 249 249 250 252 255 256 255 255 258 260 261 260 259 258 259 260 263 265 267 268 268 267 266
210 211 213 215 216 214 213 215 215 212 214 215 214 216 222 225 227 232 235 234 232 233 233 231 232 235 238 240 240 242 245 244 243 243 241 241 245 249 249 250 250 251 250 250 252 255 257 257 257 257 256 257 258 259 261 261 262 264 266 266 265 264 262
211 212 213 214 215 213 212 214 212 209 213 217 215 215 218 221 222 226 232 232 230 228 230 230 229 230 233 235 239 242 243 243 246 247 245 244 246 247 247 248 250 251 252 251 253 255 255 255 254 252 253 256 258 261 263 265 265 264 265 266 267 267 266
211 213 214 214 215 213 211 212 210 207 210 215 216 214 214 215 217 219 223 227 226 224 225 227 228 229 232 234 238 240 239 239 242 246 247 247 246 246 245 246 249 252 254 253 254 256 256 254 252 251 255 260 263 264 266 268 269 268 267 268 270 272 271
211 214 215 215 216 215 213 213 211 207 208 212 214 214 213 213 218 223 225 225 224 223 223 225 226 228 231 235 238 241 241 241 243 247 251 251 250 247 245 245 246 250 252 251 252 254 254 253 251 252 256 260 264 266 267 268 269 270 270 271 272 272 271
212 214 216 216 216 215 215 215 213 210 208 210 213 214 214 214 219 225 227 225 222 223 224 224 225 227 230 233 237 241 244 246 248 251 253 254 253 250 247 245 244 245 247 248 248 250 250 250 251 254 257 261 263 265 267 267 268 269 270 272 273 273 273
214 214 215 216 216 216 215 216 215 213 211 212 213 215 217 218 220 224 227 227 225 225 226 227 228 229 230 232 235 239 242 246 248 251 252 254 254 254 252 249 245 244 246 247 249 252 253 255 256 258 260 262 264 264 266 267 268 269 270 270 270 270 271
215 215 215 216 217 217 216 216 216 215 215 215 215 216 218 220 222 224 227 228 228 228 228 229 231 232 232 234 236 238 240 243 246 247 249 251 253 255 255 252 248 246 247 250 252 254 256 258 259 261 261 263 264 265 266 267 268 269 270 271 271 271 270
216 216 215 215 216 217 218 218 217 218 219 219 219 218 218 219 221 224 226 228 229 230 230 230 231 232 233 234 236 238 240 242 244 245 246 249 251 252 253 253 251 249 250 252 254 256 257 258 260 261 262 263 264 265 266 267 268 269 270 271 272 273 273
216 216 215 215 215 217 219 220 220 221 223 224 224 223 221 219 220 223 226 227 228 229 230 230 230 232 232 232 233 235 238 240 242 244 245 247 249 250 251 252 252 251 252 253 255 257 258 259 261 263 264 266 266 266 267 267 268 270 271 272 273 273 275
216 218 217 216 216 216 219 222 222 222 225 227 228 227 226 223 221 222 225 227 228 228 230 231 231 231 232 232 231 232 235 238 240 243 244 245 247 248 250 251 250 250 251 252 254 256 258 260 262 265 268 269 269 269 269 269 270 271 272 273 274 275 275
215 219 220 218 218 218 220 223 224 224 226 229 231 231 230 227 225 224 225 227 228 228 229 231 232 232 232 232 232 232 234 236 239 241 244 245 246 246 247 249 250 250 251 253 256 259 260 261 263 266 269 270 270 270 270 270 270 271 272 273 274 276 277
214 217 220 221 219 218 220 223 225 225 227 231 234 235 234 231 230 228 227 227 228 228 229 230 232 232 233 233 233 234 235 236 238 240 242 244 245 246 247 248 250 252 254 256 259 260 262 263 264 266 268 268 269 269 269 270 270 270 270 271 272 274 275
Height
10978 10980 10983 10986 10988 10990 10992 10993 10994 10995 10996 10997 10998 10999 10999 11000 11000 11000 11000 10999 10998 10997 10996 10996 10996 10996 10996 10996 10996 10997 10997 10997 10998 10998 10999 10999 10999 10999 10999 11000 11000 11000 11000 11001 11001 11001 11002 11002 11003 11004 11004 11005 11005 11005 11006 11006 11007 11007 11007 11008 11008 11008 11008
10975 10978 10981 10983 10986 10989 10990 10992 10993 10994 10995 10997 10998 10999 11000 11000 11000 11001 11001 11001 11000 10999 10998 10998 10998 10998 10998 10998 10998 10999 10999 10999 11000 11000 11001 11001 11001 11001 11002 11002 11002 11002 11003 11003 11003 11004 11004 11005 11005 11006 11007 11007 11008 11008 11009 11009 11009 11010 11010 11010 11010 11010 11010
10972 10975 10978 10981 10983 10987 10989 10990 10992 10993 10994 10996 10997 10998 10999 11000 11001 11001 11001 11002 11001 11001 11000 11000 10999 10999 10999 10999 11000 11000 11001 11001 11001 11002 11002 11003 11003 11003 11003 11004 11004 11004 11005 11005 11006 11006 11006 11007 11007 11008 11009 11009 11010 11010 11011 11011 11011 11012 11012 11012 11012 11012 11012
10969 10972 10974 10977 10981 10984 10987 10989 10990 10992 10993 10995 10996 10997 10998 11000 11001 11001 11001 11002 11002 11002 11002 11001 11001 11001 11001 11001 11001 11001 11002 11002 11003 11003 11004 11004 11004 11005 11005 11005 11006 11006 11006 11007 11007 11008 11008 11009 11009 11010 11010 11011 11012 11012 11013 11013 11013 11014 11014 11014 11014 11014 11014
10966 10969 10972 10975 10979 10982 10985 10986 10988 10990 10992 10993 10995 10996 10997 10999 11001 11001 11001 11002 11002 11003 11003 11002 11002 11002 11002 11002 11002 11002 11003 11003 11003 11004 11004 11005 11005 11006 11006 11006 11007 11007 11008 11008 11009 11009 11010 11010 11011 11011 11012 11013 11013 11014 11014 11015 11015 11015 11015 11016 11016 11016 11016
10963 10966 10969 10973 10977 10979 10982 10984 10986 10989 10990 10992 10994 10995 10996 10998 10999 11001 11001 11001 11002 11002 11003 11003 11003 11003 11003 11003 11003 11003 11003 11004 11004 11005 11005 11005 11006 11006 11007 11007 11008 11008 11009 11009 11010 11011 11011 11012 11013 11013 11014 11014 11015 11015 11016 11016 11016 11016 11017 11017 11017 11017 11018
10959 10963 10967 10971 10975 10977 10980 10982 10985 10987 10989 10990 10992 10994 10995 10996 10998 10999 11001 11001 11001 11002 11003 11003 11004 11004 11004 11004 11004 11004 11004 11004 11005 11005 11005 11006 11006 11007 11008 11008 11009 11009 11010 11010 11011 11012 11012 11013 11014 11015 11015 11016 11016 11017 11017 11017 11017 11017 11018 11018 11018 11019 11019
10954 10959 10964 10968 10972 10975 10978 10980 10982 10985 10987 10989 10990 10992 10994 10995 10996 10998 10999 11000 11001 11001 11002 11003 11004 11004 11004 11004 11004 11005 11005 11005 11005 11005 11006 11006 11007 11007 11008 11009 11009 11010 11010 11011 11012 11012 11013 11014 11015 11015 11016 11017 11017 11018 11018 11018 11018 11018 11018 11019 11019 11019 11019
10949 10953 10959 10965 10969 10972 10975 10978 10980 10982 10984 10986 10988 10990 10992 10994 10995 10996 10997 10999 11000 11000 11001 11002 11003 11004 11005 11005 11005 11005 11005 11005 11005 11005 11005 11006 11006 11007 11008 11009 11009 11010 11011 11011 11012 11013 11014 11015 11015 11016 11017 11018 11018 11019 11019 11019 11019 11019 11019 11019 11019 11019 11019
10944 10947 10953 10960 10964 10967 10971 10975 10977 10979 10981 10983 10985 10987 10990 10991 10993 10994 10995 10997 10998 10999 11000 11001 11002 11003 11004 11004 11004 11005 11005 11005 11006 11006 11006 11006 11006 11007 11008 11008 11009 11010 11011 11012 11013 11014 11015 11016 11016 11017 11018 11019 11019 11020 11020 11020 11019 11019 11020 11020 11019 11019 11019
10939 10941 10947 10954 10958 10962 10967 10971 10973 10975 10977 10979 10982 10984 10986 10989 10991 10992 10994 10995 10996 10998 10999 11000 11001 11002 11003 11003 11004 11004 11004 11005 11006 11006 11006 11006 11007 11007 11008 11009 11010 11011 11011 11012 11013 11014 11015 11016 11017 11018 11019 11020 11020 11020 11020 11020 11020 11020 11020 11020 11020 11020 11019
10935 10938 10942 10948 10953 10957 10961 10965 10969 10971 10974 10976 10979 10981 10983 10986 10988 10990 10991 10993 10994 10995 10997 10998 10999 11000 11001 11002 11002 11003 11003 11004 11005 11006 11006 11007 11007 11008 11008 11009 11010 11011 11011 11012 11013 11014 11015 11016 11017 11018 11019 11020 11020 11021 11021 11021 11021 11020 11020 11020 11020 11019 11019
10934 10937 10939 10943 10948 10953 10956 10960 10964 10967 10970 10973 10976 10978 10981 10983 10985 10987 10989 10991 10992 10993 10994 10996 10997 10998 10999 11000 11000 11001 11002 11002 11003 11004 11005 11006 11007 11008 11009 11009 11010 11011 11011 11012 11012 11013 11014 11015 11016 11017 11018 11020 11021 11021 11021 11021 11020 11019 11019 11019 11018 11018 11018
10927 10933 10937 10939 10944 10949 10952 10956 10960 10964 10966 10969 10972 10974 10978 10981 10983 10984 10986 10988 10989 10990 10991 10992 10994 10995 10996 10997 10998 10999 11000 11001 11001 11002 11003 11005 11006 11008 11008 11009 11010 11010 11011 11012 11013 11013 11014 11015 11016 11017 11018 11020 11021 11020 11020 11019 11018 11017 11017 11017 11017 11017 11017
10917 10924 10932 10936 10940 10946 10950 10953 10956 10959 10962 10965 10968 10971 10974 10977 10979 10981 10983 10984 10985 10986 10987 10989 10990 10992 10993 10995 10996 10997 10998 10998 10999 11000 11001 11003 11005 11006 11007 11008 11009 11010 11011 11012 11012 11013 11014 11015 11015 11015 11016 11016 11015 11014 11015 11016 11017 11016 11016 11016 11016 11016 11016
10910 10915 10921 10927 10933 10940 10946 10949 10952 10954 10957 10961 10964 10967 10970 10972 10974 10976 10978 10980 10981 10982 10984 10985 10987 10989 10991 10992 10993 10995 10995 10996 10997 10997 10999 11000 11002 11003 11004 11006 11006 11008 11009 11010 11011 11012 11012 11013 11013 11013 11013 11013 11011 11011 11012 11014 11015 11015 11015 11015 11015 11015 11015
10905 10908 10912 10916 10921 10927 10934 10941 10946 10950 10953 10956 10960 10963 10965 10967 10969 10971 10973 10974 10975 10976 10978 10981 10983 10986 10987 10989 10991 10992 10992 10993 10993 10994 10995 10997 10999 11000 11001 11002 11003 11005 11006 11007 11008 11009 11009 11009 11011 11011 11010 11011 11011 11011 11011 11012 11012 11012 11012 11012 11013 11013 11013
10898 10905 10910 10913 10915 10918 10923 10931 10938 10944 10948 10951 10955 10959 10960 10962 10965 10967 10969 10969 10968 10968 10971 10975 10978 10981 10984 10986 10987 10988 10989 10989 10990 10990 10991 10993 10994 10996 10997 10998 10999 11001 11002 11003 11005 11005 11005 11006 11008 11008 11007 11008 11008 11009 11009 11010 11010 11009 11009 11009 11009 11009 11010
10893 10902 10909 10912 10913 10916 10920 10925 10930 10936 10941 10945 10949 10952 10955 10958 10960 10962 10965 10966 10966 10968 10970 10971 10974 10977 10981 10984 10984 10983 10983 10983 10982 10983 10986 10988 10989 10991 10993 10994 10995 10997 10998 11000 11001 11001 11001 11003 11005 11005 11004 11005 11005 11006 11006 11007 11007 11007 11007 11006 11007 11007 11007
10889 10898 10904 10907 10910 10913 10917 10922 10925 10929 10933 10937 10942 10947 10950 10953 10956 10958 10961 10964 10966 10969 10971 10971 10972 10975 10978 10980 10980 10978 10976 10974 10973 10976 10980 10983 10985 10987 10989 10990 10991 10993 10994 10995 10997 10997 10997 10999 11000 11001 11001 11001 11002 11003 11003 11003 11004 11004 11004 11004 11004 11004 11004
10881 10890 10896 10900 10905 10908 10912 10917 10921 10926 10929 10933 10938 10942 10944 10948 10951 10954 10958 10962 10964 10968 10969 10969 10970 10972 10974 10975 10974 10972 10972 10973 10974 10975 10978 10980 10981 10983 10984 10986 10987 10989 10990 10992 10993 10993 10994 10995 10995 10996 10996 10997 10998 10999 11000 11000 11000 11001 11001 11001 11001 11000 11000
10874 10881 10887 10892 10897 10902 10907 10912 10917 10922 10926 10930 10934 10937 10940 10944 10947 10950 10955 10959 10961 10964 10966 10966 10967 10969 10971 10972 10969 10969 10971 10972 10974 10975 10975 10977 10979 10980 10981 10982 10984 10986 10988 10989 10990 10991 10991 10991 10990 10990 10992 10994 10995 10996 10996 10996 10996 10997 10997 10997 10997 10997 10997
10867 10873 10878 10884 10890 10896 10901 10906 10912 10918 10924 10928 10932 10935 10938 10942 10944 10947 10952 10956 10957 10958 10960 10962 10962 10965 10968 10969 10966 10966 10969 10970 10971 10972 10973 10974 10976 10977 10978 10979 10981 10983 10985 10986 10987 10987 10987 10987 10987 10987 10988 10989 10991 10992 10992 10992 10993 10993 10993 10993 10993 10993 10993
10861 10866 10871 10877 10884 10890 10896 10902 10907 10915 10922 10928 10932 10935 10938 10940 10941 10943 10947 10951 10952 10953 10955 10957 10958 10960 10963 10963 10961 10962 10965 10967 10967 10968 10968 10970 10971 10972 10974 10975 10977 10979 10980 10981 10982 10983 10984 10984 10986 10986 10985 10985 10986 10986 10987 10987 10988 10988 10988 10988 10987 10988 10988
10855 10860 10865 10870 10877 10884 10891 10897 10903 10911 10918 10924 10928 10931 10933 10933 10935 10937 10941 10944 10946 10948 10950 10953 10955 10956 10957 10957 10958 10959 10961 10962 10962 10962 10964 10966 10967 10967 10969 10971 10973 10974 10974 10976 10978 10979 10980 10981 10982 10983 10982 10981 10981 10981 10981 10982 10982 10982 10983 10982 10982 10983 10983
10849 10854 10859 10864 10871 10878 10884 10891 10898 10904 10910 10915 10919 10922 10922 10922 10925 10928 10932 10937 10940 10943 10945 10948 10950 10951 10951 10953 10953 10953 10954 10956 10957 10958 10959 10961 10962 10963 10965 10967 10968 10969 10970 10972 10974 10975 10975 10976 10976 10978 10978 10976 10976 10976 10976 10976 10977 10977 10977 10977 10977 10977 10978
10842 10847 10851 10857 10865 10872 10879 10885 10892 10896 10901 10905 10910 10912 10914 10916 10919 10921 10924 10928 10932 10936 10939 10942 10944 10944 10946 10947 10946 10947 10951 10952 10951 10952 10954 10956 10958 10959 10961 10962 10962 10963 10965 10967 10970 10971 10971 10971 10971 10973 10973 10972 10972 10971 10970 10971 10972 10971 10971 10971 10971 10972 10972
10833 10838 10844 10852 10860 10867 10874 10880 10886 10890 10892 10896 10900 10903 10906 10911 10914 10914 10915 10918 10922 10927 10931 10934 10936 10936 10938 10939 10939 10943 10947 10946 10945 10947 10950 10951 10952 10954 10955 10955 10955 10957 10960 10962 10964 10964 10965 10965 10966 10967 10967 10966 10966 10965 10965 10966 10966 10966 10965 10965 10965 10966 10966
10826 10832 10839 10848 10855 10862 10869 10875 10881 10884 10886 10888 10891 10895 10899 10902 10904 10904 10905 10907 10911 10916 10921 10925 10928 10930 10931 10931 10933 10937 10939 10938 10938 10941 10943 10943 10944 10947 10949 10949 10950 10952 10954 10956 10957 10957 10957 10959 10960 10961 10961 10960 10959 10959 10959 10960 10961 10960 10959 10959 10959 10960 10960
10822 10828 10835 10842 10848 10854 10862 10868 10873 10877 10879 10880 10883 10886 10889 10892 10893 10894 10896 10898 10902 10906 10911 10915 10919 10921 10922 10924 10926 10929 10930 10930 10931 10933 10933 10935 10938 10941 10943 10943 10945 10947 10948 10949 10951 10951 10951 10952 10953 10954 10954 10953 10952 10952 10952 10953 10954 10953 10952 10952 10953 10953 10952
10817 10823 10828 10834 10840 10846 10853 10858 10864 10869 10871 10872 10875 10878 10881 10884 10885 10884 10887 10891 10894 10898 10901 10904 10908 10911 10914 10917 10919 10920 10921 10922 10923 10923 10924 10927 10931 10934 10936 10937 10939 10940 10941 10943 10944 10945 10945 10946 10946 10947 10947 10946 10946 10946 10945 10945 10946 10945 10945 10945 10945 10945 10945
10808 10814 10819 10825 10832 10839 10844 10849 10855 10860 10864 10866 10869 10872 10874 10876 10877 10877 10880 10885 10889 10891 10894 10897 10900 10903 10906 10908 10910 10912 10913 10914 10915 10916 10917 10919 10923 10926 10928 10929 10931 10932 10933 10935 10936 10937 10938 10938 10939 10940 10940 10939 10939 10939 10939 10938 10937 10936 10936 10937 10937 10938 10938
10799 10804 10810 10817 10825 10832 10837 10841 10846 10850 10854 10857 10860 10863 10865 10868 10870 10872 10875 10880 10883 10885 10887 10890 10892 10895 10897 10900 10902 10904 10905 10906 10908 10909 10911 10912 10914 10916 10919 10920 10922 10923 10926 10927 10929 10929 10929 10929 10930 10931 10931 10931 10931 10931 10930 10930 10929 10928 10927 10927 10927 10928 10928
10792 10796 10803 10810 10818 10824 10829 10833 10837 10840 10843 10846 10849 10853 10855 10859 10863 10866 10869 10872 10874 10877 10879 10882 10884 10886 10888 10891 10893 10896 10898 10899 10901 10903 10904 10906 10907 10909 10911 10913 10914 10916 10918 10919 10920 10920 10921 10921 10921 10922 10922 10922 10922 10922 10921 10921 10920 10919 10918 10918 10917 10917 10917
10785 10789 10796 10803 10811 10817 10821 10824 10828 10832 10835 10837 10841 10844 10846 10849 10855 10859 10861 10862 10864 10867 10871 10873 10875 10877 10880 10882 10885 10888 10891 10893 10894 10896 10898 10899 10900 10902 10904 10905 10907 10908 10909 10910 10911 10912 10911 10912 10912 10912 10913 10913 10913 10913 10912 10912 10911 10911 10910 10909 10909 10908 10907
10779 10783 10789 10797 10804 10810 10814 10816 10820 10824 10826 10828 10831 10834 10836 10841 10846 10850 10851 10852 10855 10859 10863 10865 10867 10870 10873 10875 10877 10880 10883 10885 10887 10889 10891 10892 10893 10894 10896 10897 10899 10900 10901 10901 10902 10903 10903 10903 10903 10904 10904 10904 10904 10904 10903 10903 10903 10902 10901 10900 10899 10898 10898
10772 10777 10782 10789 10796 10802 10806 10808 10812 10815 10817 10818 10821 10824 10829 10833 10836 10839 10842 10844 10846 10852 10857 10859 10860 10863 10865 10867 10869 10871 10874 10877 10879 10881 10883 10884 10886 10887 10888 10889 10890 10891 10892 10893 10893 10894 10895 10896 10896 10896 10896 10896 10895 10895 10895 10894 10894 10894 10893 10892 10891 10889 10888
10766 10771 10776 10781 10787 10794 10799 10802 10805 10807 10808 10810 10812 10816 10821 10825 10828 10831 10835 10837 10839 10845 10850 10851 10853 10855 10857 10859 10861 10863 10866 10868 10870 10872 10875 10876 10877 10879 10880 10881 10882 10882 10883 10884 10885 10885 10886 10887 10888 10888 10888 10887 10886 10886 10886 10886 10886 10886 10886 10885 10883 10881 10880